Total_Precipitation_Accumulation
0.08 0.14 0.17 0.17 0.17 0.16 0.12 0.11 0.16 0.17 0.24 0.23 0.21 0.30 0.22 0.21 0.20 0.17 0.11 0.07 0.06 0.07 0.10 0.19 0.24 0.23 0.23 0.23 0.26 0.33 0.39 0.38 0.32 0.27 0.27 0.29 0.29 0.28 0.29 0.30 0.30 0.36 0.40 0.42
0.09 0.12 0.12 0.14 0.16 0.14 0.09 0.08 0.07 0.11 0.17 0.18 0.23 0.28 0.25 0.22 0.20 0.27 0.21 0.13 0.11 0.10 0.12 0.16 0.20 0.23 0.21 0.22 0.24 0.30 0.37 0.44 0.47 0.42 0.37 0.36 0.37 0.35 0.36 0.35 0.36 0.41 0.44 0.46
0.19 0.15 0.15 0.21 0.18 0.14 0.11 0.09 0.10 0.16 0.20 0.25 0.29 0.28 0.27 0.30 0.24 0.22 0.17 0.13 0.13 0.13 0.14 0.15 0.17 0.18 0.19 0.18 0.23 0.37 0.44 0.45 0.54 0.60 0.53 0.55 0.57 0.51 0.49 0.47 0.48 0.50 0.52 0.54
0.25 0.28 0.34 0.23 0.17 0.16 0.18 0.19 0.18 0.19 0.25 0.36 0.40 0.33 0.31 0.34 0.32 0.25 0.15 0.14 0.15 0.12 0.11 0.12 0.13 0.14 0.15 0.19 0.24 0.37 0.44 0.43 0.54 0.66 0.61 0.63 0.64 0.61 0.64 0.70 0.71 0.74 0.74 0.72
0.37 0.38 0.39 0.29 0.26 0.27 0.32 0.35 0.30 0.33 0.40 0.41 0.35 0.31 0.34 0.31 0.23 0.17 0.13 0.13 0.13 0.14 0.13 0.13 0.15 0.16 0.19 0.27 0.36 0.46 0.53 0.58 0.66 0.78 0.81 0.84 0.84 0.85 0.90 0.96 1.00 1.04 1.06 1.01
0.48 0.52 0.57 0.46 0.38 0.37 0.45 0.65 0.51 0.43 0.42 0.34 0.33 0.40 0.42 0.29 0.22 0.18 0.14 0.14 0.16 0.19 0.19 0.19 0.22 0.26 0.32 0.42 0.55 0.65 0.67 0.69 0.77 0.92 1.00 1.00 1.00 1.03 1.07 1.15 1.18 1.15 1.06 0.98
0.52 0.58 0.53 0.47 0.44 0.45 0.76 0.95 0.65 0.56 0.58 0.57 0.52 0.47 0.39 0.30 0.26 0.22 0.16 0.15 0.18 0.22 0.27 0.31 0.34 0.40 0.48 0.57 0.66 0.67 0.69 0.76 0.82 1.01 1.20 1.20 1.22 1.21 1.22 1.27 1.32 1.32 1.26 1.19
0.60 0.78 0.80 0.56 0.53 0.75 0.96 0.86 0.80 0.69 0.64 0.66 0.57 0.44 0.37 0.29 0.25 0.20 0.17 0.16 0.19 0.23 0.26 0.34 0.43 0.53 0.63 0.65 0.66 0.71 0.75 0.80 0.90 1.10 1.19 1.24 1.34 1.36 1.40 1.39 1.36 1.36 1.39 1.32
0.77 0.92 0.83 0.71 0.76 0.78 0.82 0.81 0.74 0.63 0.59 0.58 0.55 0.47 0.41 0.33 0.26 0.21 0.16 0.16 0.18 0.21 0.26 0.33 0.43 0.59 0.73 0.76 0.77 0.76 0.77 0.81 0.90 1.00 1.08 1.19 1.25 1.23 1.28 1.35 1.37 1.39 1.39 1.36
1.02 1.01 0.91 0.80 0.75 0.71 0.60 0.54 0.52 0.48 0.40 0.36 0.36 0.34 0.31 0.26 0.23 0.22 0.19 0.17 0.18 0.21 0.28 0.33 0.40 0.54 0.66 0.72 0.75 0.74 0.71 0.71 0.80 0.95 1.01 1.08 1.21 1.22 1.28 1.34 1.39 1.48 1.50 1.42
1.12 1.13 1.00 0.94 0.86 0.82 0.62 0.51 0.43 0.40 0.34 0.30 0.28 0.26 0.23 0.22 0.19 0.16 0.14 0.15 0.17 0.22 0.29 0.33 0.43 0.57 0.68 0.73 0.78 0.80 0.77 0.73 0.75 0.84 0.93 1.00 1.13 1.22 1.24 1.25 1.20 1.23 1.28 1.26
1.05 1.00 0.95 0.96 0.78 0.74 0.70 0.55 0.42 0.38 0.34 0.27 0.22 0.20 0.18 0.17 0.15 0.12 0.12 0.14 0.19 0.25 0.32 0.35 0.42 0.52 0.62 0.76 0.90 0.95 0.89 0.81 0.77 0.77 0.86 0.92 1.01 1.03 0.94 0.91 0.88 0.87 0.90 0.85
0.68 0.71 0.77 0.82 0.70 0.60 0.59 0.51 0.39 0.36 0.34 0.27 0.21 0.17 0.11 0.09 0.08 0.08 0.13 0.20 0.25 0.30 0.36 0.43 0.49 0.56 0.65 0.80 1.00 1.12 1.07 0.92 0.81 0.75 0.77 0.81 0.91 0.99 1.03 0.92 0.85 0.77 0.73 0.64
0.65 0.70 0.72 0.66 0.62 0.57 0.50 0.42 0.35 0.29 0.26 0.22 0.16 0.13 0.10 0.09 0.09 0.14 0.22 0.28 0.32 0.36 0.42 0.49 0.56 0.62 0.71 0.84 1.00 1.09 1.09 0.97 0.83 0.79 0.78 0.76 0.80 0.89 0.97 1.04 1.01 0.84 0.67 0.57
0.69 0.68 0.63 0.55 0.53 0.52 0.44 0.35 0.30 0.27 0.23 0.19 0.15 0.13 0.11 0.11 0.15 0.21 0.28 0.37 0.46 0.49 0.49 0.52 0.58 0.63 0.71 0.84 0.94 0.99 0.99 0.92 0.83 0.80 0.80 0.73 0.69 0.75 0.83 0.91 1.01 0.96 0.78 0.65
0.64 0.61 0.52 0.46 0.45 0.44 0.38 0.34 0.30 0.26 0.21 0.16 0.14 0.12 0.12 0.14 0.18 0.25 0.34 0.49 0.67 0.68 0.60 0.59 0.61 0.63 0.71 0.87 0.95 0.90 0.82 0.68 0.65 0.72 0.73 0.70 0.68 0.72 0.81 0.90 0.97 0.96 0.84 0.73
0.49 0.49 0.46 0.43 0.40 0.41 0.35 0.28 0.21 0.18 0.17 0.16 0.16 0.15 0.16 0.21 0.29 0.42 0.51 0.57 0.65 0.65 0.62 0.59 0.55 0.56 0.69 0.84 0.92 0.83 0.70 0.57 0.47 0.52 0.63 0.67 0.70 0.76 0.87 0.94 0.97 0.90 0.77 0.64
0.32 0.34 0.37 0.36 0.33 0.33 0.30 0.23 0.19 0.15 0.13 0.14 0.16 0.18 0.23 0.33 0.52 0.71 0.75 0.72 0.68 0.59 0.53 0.51 0.46 0.49 0.62 0.70 0.79 0.78 0.66 0.55 0.46 0.47 0.54 0.58 0.68 0.81 0.89 0.90 0.86 0.80 0.72 0.63
0.22 0.25 0.27 0.26 0.24 0.23 0.21 0.19 0.16 0.14 0.13 0.17 0.23 0.27 0.31 0.40 0.62 0.81 0.84 0.90 0.89 0.72 0.53 0.44 0.41 0.45 0.55 0.61 0.69 0.73 0.59 0.45 0.37 0.37 0.41 0.44 0.57 0.75 0.81 0.75 0.68 0.67 0.66 0.64
0.17 0.19 0.18 0.16 0.15 0.14 0.12 0.12 0.12 0.15 0.18 0.26 0.31 0.36 0.41 0.47 0.64 0.83 0.90 0.93 0.88 0.72 0.52 0.41 0.40 0.39 0.45 0.58 0.66 0.64 0.52 0.39 0.28 0.25 0.30 0.39 0.55 0.72 0.73 0.65 0.61 0.63 0.63 0.64
0.12 0.12 0.11 0.09 0.08 0.08 0.06 0.08 0.12 0.20 0.29 0.33 0.36 0.44 0.50 0.55 0.63 0.82 1.03 1.04 0.80 0.57 0.43 0.40 0.39 0.37 0.42 0.57 0.62 0.57 0.49 0.40 0.31 0.26 0.29 0.43 0.61 0.72 0.65 0.58 0.57 0.58 0.55 0.59
0.08 0.09 0.10 0.08 0.07 0.06 0.06 0.09 0.16 0.28 0.40 0.41 0.39 0.43 0.52 0.62 0.68 0.74 0.82 0.97 0.85 0.64 0.44 0.37 0.37 0.39 0.44 0.56 0.56 0.49 0.45 0.42 0.36 0.32 0.36 0.49 0.61 0.66 0.59 0.56 0.58 0.56 0.55 0.58
0.07 0.07 0.06 0.05 0.05 0.05 0.06 0.10 0.17 0.32 0.49 0.51 0.48 0.47 0.54 0.64 0.74 0.89 0.87 0.78 0.78 0.69 0.49 0.36 0.33 0.38 0.45 0.51 0.52 0.45 0.46 0.43 0.38 0.35 0.38 0.45 0.51 0.55 0.57 0.58 0.59 0.55 0.55 0.55
0.05 0.04 0.03 0.03 0.04 0.07 0.11 0.15 0.21 0.30 0.43 0.43 0.37 0.34 0.44 0.59 0.62 0.65 0.74 0.78 0.74 0.69 0.53 0.40 0.31 0.33 0.41 0.44 0.47 0.50 0.53 0.47 0.38 0.34 0.35 0.41 0.47 0.53 0.60 0.64 0.63 0.60 0.58 0.55
0.03 0.03 0.03 0.06 0.11 0.16 0.20 0.26 0.32 0.39 0.49 0.43 0.32 0.24 0.29 0.46 0.60 0.57 0.59 0.64 0.66 0.61 0.52 0.43 0.38 0.39 0.42 0.48 0.53 0.54 0.50 0.40 0.34 0.33 0.37 0.46 0.50 0.54 0.60 0.62 0.60 0.61 0.62 0.61
0.04 0.04 0.05 0.09 0.14 0.19 0.23 0.34 0.43 0.52 0.65 0.61 0.43 0.27 0.26 0.33 0.44 0.51 0.56 0.61 0.63 0.65 0.54 0.46 0.43 0.47 0.49 0.54 0.55 0.51 0.45 0.40 0.38 0.39 0.44 0.49 0.52 0.54 0.58 0.60 0.56 0.58 0.60 0.61
0.05 0.05 0.07 0.12 0.18 0.19 0.21 0.29 0.39 0.57 0.75 0.77 0.55 0.31 0.27 0.33 0.43 0.50 0.54 0.61 0.66 0.68 0.60 0.49 0.46 0.48 0.51 0.52 0.50 0.44 0.38 0.34 0.37 0.39 0.41 0.42 0.45 0.53 0.59 0.61 0.55 0.55 0.57 0.57